Home   Weather   Smara   Past weeks

Past Weather in Smara, Western Sahara — Yesterday and Last 2 Weeks

Now
66 °F

Clear.


Feels Like: 66 °F
Forecast: 60 / 87 °F
Wind: 5 mph from North

Location: Laayoune/Hassan Isl

Current Time: Oct 1, 2016 at 2:31:39 AM

Latest Report: Oct 1, 2016 at 2:00 AM


Visibility: 10 mi

Pressure: 29.98 "Hg

Humidity: 94%

Dew Point: 64 °F

Location of SmaraLocation

Past Weather in Smara — Graph

°F

Smara Temperature Yesterday

Maximum temperature yesterday: 81 °F (at 2:00 PM)
Minimum temperature yesterday: 66 °F (at 3:00 AM)
Average temperature yesterday: 72 °F

High & Low Weather Summary for the Past Weeks

 TemperatureHumidityPressure
High84 °F (Sep 17, 3:00 PM)100% (Sep 29, 12:00 PM)30.15 "Hg (Sep 29, 12:00 PM)
Low59 °F (Sep 29, 12:00 PM)40% (Sep 22, 3:00 PM)29.89 "Hg (Sep 29, 6:00 PM)
Average74 °F69%30.04 "Hg
* Reported Sep 16 12:00 AM — Oct 1 12:00 AM, Smara, Weather by CustomWeather, © 2016

Note: Actual official high and low records may vary slightly from our data, if they occured in-between our weather recording intervals... More about our weather records

Advertising

Smara Weather History for the Previous 24 Hours

Scroll right to see more
 ConditionsComfort  
Time TempWeatherWind HumidityBarometerVisibility
12:00 AM
Sat, Oct 1
68 °FClear.8 mph88%30.01 "Hg10 mi
11:00 PM
Fri, Sep 30
68 °FClear.9 mph88%30.01 "Hg10 mi
10:00 PM68 °FClear.8 mph88%30.01 "Hg10 mi
9:00 PM70 °FClear.8 mph78%29.98 "Hg10 mi
8:00 PM72 °FSunny.10 mph73%29.95 "Hg10 mi
7:00 PM75 °FSunny.13 mph65%29.95 "Hg10 mi
6:00 PM79 °FSunny.15 mph51%29.95 "Hg10 mi
5:00 PM81 °FSunny.17 mph54%29.95 "Hg10 mi
4:00 PM81 °FSunny.14 mph54%29.95 "Hg10 mi
3:00 PM81 °FSunny.17 mph54%N/A10 mi
2:00 PM81 °FSunny.17 mph54%29.98 "Hg10 mi
12:00 PM77 °FSunny.22 mph57%30.01 "Hg10 mi
11:00 AM75 °FSunny.21 mph61%30.01 "Hg10 mi
10:00 AM72 °FPartly sunny.12 mph73%30.01 "HgN/A
9:00 AM70 °FOvercast.6 mph83%29.98 "Hg5 mi
8:00 AM68 °FOvercast.7 mph88%29.98 "Hg4 mi
7:00 AM66 °FPassing clouds.8 mph94%29.95 "Hg5 mi
6:00 AM66 °FFog.6 mph94%29.92 "Hg1 mi
5:00 AM66 °FFog.8 mph94%29.92 "Hg1 mi
4:00 AM66 °FClear.8 mph94%29.92 "Hg4 mi
3:00 AM66 °FClear.7 mph94%29.95 "Hg10 mi
2:00 AM68 °FPassing clouds.9 mph94%29.95 "Hg5 mi
Weather by CustomWeather, © 2016

See weather overviewHow to use our weather pages